Terminal Aerodrome Forecast
Issued by NWS Miami, FL

Home | Current Version | Previous Version | Text Only | Print | Product List | Glossary On
Versions: 1 2 3 4 5 6 7 8 9 10 11 12 13 14 15 16 17 18 19 20 21 22 23 24 25 26 27 28 29 30 31 32 33 34 35 36 37 38 39 40 41 42 43 44 45 46 47 48 49 50
000
FTUS42 KMFL 300542
TAFPBI
TAF
KPBI 300542Z 3006/3106 11015KT P6SM SHRA VCTS SCT025CB BKN050
      TEMPO 3006/3008 VRB10G20KT TSRA BKN025CB
     FM301400 13020KT P6SM SHRA VCTS SCT025CB BKN050
     FM302300 15010KT P6SM SHRA VCTS SCT025CB PROB30 3023/3105
      VRB10G20KT TSRA BKN025CB=

USA.gov is the U.S. government's official web portal to all federal, state and local government web resources and services.